Date String (YYYY-MM-DD hh:mm:ss) UTC,Instrument flags,absolute air pressure of the measurement (hPa),sample flow rate (lpm),inlet stack bypass flow (lpm),air temperature of the measurement (°C),ambient temperature measured by the external sensor (°C),aerosol sample conditioner tube jacket temperature (°C),OPC LED temperature (°C),internal box temperature (°C),relative humidity of the measurement (%),span deviation,mass concentration of particles derived from Lorenz-Mie calculation of OPC scattering (μg/m³),mass concentration of particles derived from Lorenz-Mie calculation of OPC scattering (μg/m³),mass concentration of particles derived from Lorenz-Mie calculation of OPC scattering (μg/m³)
DateTimeUTC,F1_M11,P_M11,Q1_M11,Q2_M11,T1_M11,T2_M11,T3_M11,T4_M11,T5_M11,U1_M11,ZSPAN_M11,X0_M11,X2_M11,X1_M11
2023-11-05 10:00:00,SystemResetWarning,0828.8,5.00,000.00,027.7,026.7,000.0,036.1,029.2,10.3,0000.0,0005.08,0001.99,0001.46
2023-11-05 10:01:00,SystemResetWarning,0828.8,5.00,000.00,027.7,026.7,000.0,036.1,029.1,10.2,0000.0,0004.97,0001.95,0001.43
2023-11-05 10:02:00,SystemResetWarning,0828.8,5.00,000.00,027.7,026.7,000.0,036.1,029.1,10.1,0000.0,0004.35,0001.91,0001.38
2023-11-05 10:03:00,SystemResetWarning,0828.7,5.00,000.00,027.7,026.8,000.0,036.1,029.1,9.9,0000.0,0004.70,0001.87,0001.32
2023-11-05 10:04:00,SystemResetWarning,0828.6,5.00,000.00,027.7,026.8,000.0,036.1,029.1,10.0,0000.0,0004.57,0001.83,0001.31
2023-11-05 10:05:00,SystemResetWarning,0828.6,5.00,000.00,027.7,026.8,000.0,036.1,029.1,10.1,0000.0,0004.50,0001.79,0001.30
2023-11-05 10:06:00,SystemResetWarning,0828.6,5.00,000.00,027.7,026.8,000.0,036.1,029.2,10.1,0000.0,0004.53,0001.81,0001.31
2023-11-05 10:07:00,SystemResetWarning,0828.6,5.01,000.00,027.7,026.8,000.0,036.1,029.2,10.1,0000.0,0004.84,0001.82,0001.32
2023-11-05 10:08:00,SystemResetWarning,0828.5,5.00,000.00,027.7,026.8,000.0,036.1,029.1,10.1,0000.0,0005.37,0001.78,0001.31
2023-11-05 10:09:00,SystemResetWarning,0828.4,5.01,000.00,027.7,026.8,000.0,036.1,029.1,10.1,0000.0,0005.37,0001.79,0001.30
2023-11-05 10:10:00,SystemResetWarning,0828.6,5.01,000.00,027.7,026.8,000.0,036.1,029.1,9.9,0000.0,0005.18,0001.78,0001.28
2023-11-05 10:11:00,SystemResetWarning,0828.7,5.00,000.00,027.7,026.8,000.0,036.1,029.2,9.9,0000.0,0005.13,0001.69,0001.25
2023-11-05 10:12:00,SystemResetWarning,0828.8,5.00,000.00,027.7,026.8,000.0,036.1,029.2,9.8,0000.0,0005.11,0001.68,0001.24
2023-11-05 10:13:00,SystemResetWarning,0828.9,5.00,000.00,027.7,026.8,000.0,036.1,029.2,10.0,0000.0,0005.16,0001.67,0001.23
2023-11-05 10:14:00,SystemResetWarning,0828.7,5.01,000.00,027.7,026.8,000.0,036.1,029.2,10.0,0000.0,0005.33,0001.68,0001.23
2023-11-05 10:15:00,SystemResetWarning,0828.4,5.00,000.00,027.7,026.7,000.0,036.1,029.2,10.0,0000.0,0006.31,0001.71,0001.24
2023-11-05 10:16:00,SystemResetWarning,0828.5,5.00,000.00,027.7,026.7,000.0,036.1,029.1,10.2,0000.0,0006.45,0001.74,0001.24
2023-11-05 10:17:00,SystemResetWarning,0828.6,5.00,000.00,027.7,026.7,000.0,036.1,029.1,10.4,0000.0,0006.81,0001.70,0001.22
2023-11-05 10:18:00,SystemResetWarning,0828.7,5.00,000.00,027.7,026.7,000.0,036.1,029.1,10.3,0000.0,0007.02,0001.68,0001.20
2023-11-05 10:19:00,SystemResetWarning,0828.6,5.01,000.00,027.7,026.7,000.0,036.1,029.1,10.2,0000.0,0006.01,0001.69,0001.19
2023-11-05 10:20:00,SystemResetWarning,0828.6,5.00,000.00,027.7,026.7,000.0,036.1,029.1,10.0,0000.0,0005.98,0001.66,0001.17
2023-11-05 10:21:00,SystemResetWarning,0828.7,5.00,000.00,027.7,026.7,000.0,036.1,029.0,10.5,0000.0,0005.94,0001.65,0001.16
2023-11-05 10:22:00,SystemResetWarning,0828.6,5.01,000.00,027.7,026.6,000.0,036.1,029.0,10.4,0000.0,0005.64,0001.67,0001.18
2023-11-05 10:23:00,SystemResetWarning,0828.5,5.01,000.00,027.6,026.6,000.0,036.1,029.0,10.6,0000.0,0005.63,0001.67,0001.17
2023-11-05 10:24:00,SystemResetWarning,0828.6,4.99,000.00,027.6,026.6,000.0,036.1,029.0,10.6,0000.0,0005.03,0001.62,0001.15
2023-11-05 10:25:00,SystemResetWarning,0828.6,5.00,000.00,027.6,026.6,000.0,036.1,029.0,10.6,0000.0,0004.35,0001.57,0001.13
2023-11-05 10:26:00,SystemResetWarning,0828.5,4.99,000.00,027.6,026.6,000.0,036.1,029.0,10.8,0000.0,0003.52,0001.59,0001.11
2023-11-05 10:27:00,SystemResetWarning,0828.4,5.00,000.00,027.6,026.5,000.0,036.1,029.0,11.0,0000.0,0003.63,0001.57,0001.09
2023-11-05 10:28:00,SystemResetWarning,0828.4,5.00,000.00,027.5,026.5,000.0,036.1,028.9,11.0,0000.0,0004.59,0001.59,0001.07
2023-11-05 10:29:00,SystemResetWarning,0828.3,4.99,000.00,027.5,026.5,000.0,036.0,028.9,11.2,0000.0,0004.76,0001.57,0001.04
2023-11-05 10:30:00,SystemResetWarning,0828.3,5.01,000.00,027.5,026.4,000.0,036.0,028.8,11.1,0000.0,0005.21,0001.50,0001.01
2023-11-05 10:31:00,SystemResetWarning,0828.3,5.00,000.00,027.5,026.4,000.0,036.0,028.8,10.9,0000.0,0005.34,0001.49,0000.98
2023-11-05 10:32:00,SystemResetWarning,0828.2,5.00,000.00,027.5,026.3,000.0,036.0,028.8,11.0,0000.0,0005.98,0001.47,0000.95
2023-11-05 10:33:00,SystemResetWarning,0828.2,5.00,000.00,027.5,026.3,000.0,036.0,028.7,10.8,0000.0,0006.14,0001.46,0000.91
2023-11-05 10:34:00,SystemResetWarning,0828.1,5.00,000.00,027.5,026.3,000.0,036.0,028.7,11.0,0000.0,0007.89,0001.41,0000.88
2023-11-05 10:35:00,SystemResetWarning,0828.1,5.00,000.00,027.5,026.3,000.0,036.0,028.7,11.1,0000.0,0008.04,0001.43,0000.87
2023-11-05 10:36:00,SystemResetWarning,0828.0,5.00,000.00,027.4,026.2,000.0,035.9,028.7,11.2,0000.0,0008.18,0001.46,0000.86
2023-11-05 10:37:00,SystemResetWarning,0827.9,5.00,000.00,027.4,026.2,000.0,035.9,028.7,11.2,0000.0,0008.13,0001.41,0000.85
2023-11-05 10:38:00,SystemResetWarning,0828.0,5.00,000.00,027.4,026.2,000.0,035.9,028.6,11.2,0000.0,0008.26,0001.38,0000.84
2023-11-05 10:39:00,SystemResetWarning,0828.1,5.01,000.00,027.4,026.1,000.0,035.9,028.6,11.2,0000.0,0007.61,0001.35,0000.82
2023-11-05 10:40:00,SystemResetWarning,0828.1,5.00,000.00,027.4,026.1,000.0,035.9,028.6,11.3,0000.0,0007.36,0001.38,0000.82
2023-11-05 10:41:00,SystemResetWarning,0828.0,4.99,000.00,027.4,026.1,000.0,035.9,028.6,11.3,0000.0,0007.14,0001.37,0000.81
2023-11-05 10:42:00,SystemResetWarning,0828.1,5.00,000.00,027.4,026.1,000.0,035.9,028.6,11.1,0000.0,0007.62,0001.34,0000.80
2023-11-05 10:43:00,SystemResetWarning,0828.1,5.00,000.00,027.4,026.1,000.0,035.9,028.6,11.2,0000.0,0007.50,0001.34,0000.82
2023-11-05 10:44:00,SystemResetWarning,0828.2,5.00,000.00,027.3,026.1,000.0,035.8,028.6,11.2,0000.0,0007.51,0001.35,0000.83
2023-11-05 10:45:00,SystemResetWarning,0828.2,5.00,000.00,027.3,026.0,000.0,035.8,028.6,11.3,0000.0,0005.48,0001.39,0000.84
2023-11-05 10:46:00,SystemResetWarning,0828.2,5.00,000.00,027.3,026.0,000.0,035.8,028.6,11.4,0000.0,0005.30,0001.37,0000.84
2023-11-05 10:47:00,SystemResetWarning,0828.1,5.00,000.00,027.3,026.0,000.0,035.8,028.5,11.3,0000.0,0004.90,0001.30,0000.84
2023-11-05 10:48:00,SystemResetWarning,0828.2,5.00,000.00,027.3,026.0,000.0,035.8,028.5,11.3,0000.0,0004.86,0001.32,0000.84
2023-11-05 10:49:00,SystemResetWarning,0828.1,5.00,000.00,027.3,026.0,000.0,035.8,028.5,11.2,0000.0,0004.63,0001.38,0000.85
2023-11-05 10:50:00,SystemResetWarning,0828.1,5.00,000.00,027.3,026.0,000.0,035.8,028.5,11.1,0000.0,0004.77,0001.42,0000.86
2023-11-05 10:51:00,SystemResetWarning,0828.1,5.00,000.00,027.2,026.0,000.0,035.8,028.5,11.2,0000.0,0005.37,0001.41,0000.88
2023-11-05 10:52:00,SystemResetWarning,0828.1,5.00,000.00,027.2,025.9,000.0,035.7,028.5,11.3,0000.0,0005.70,0001.44,0000.91
2023-11-05 10:53:00,SystemResetWarning,0828.1,5.00,000.00,027.2,025.9,000.0,035.7,028.5,11.2,0000.0,0005.54,0001.49,0000.92
2023-11-05 10:54:00,SystemResetWarning,0828.2,5.01,000.00,027.2,025.9,000.0,035.7,028.5,11.3,0000.0,0005.64,0001.46,0000.92
2023-11-05 10:55:00,SystemResetWarning,0828.2,5.00,000.00,027.2,025.9,000.0,035.7,028.5,11.3,0000.0,0005.56,0001.43,0000.92
2023-11-05 10:56:00,SystemResetWarning,0828.3,5.00,000.00,027.2,025.9,000.0,035.7,028.5,11.3,0000.0,0005.79,0001.43,0000.92
2023-11-05 10:57:00,SystemResetWarning,0828.2,5.00,000.00,027.2,025.9,000.0,035.7,028.4,11.4,0000.0,0006.16,0001.45,0000.93
2023-11-05 10:58:00,SystemResetWarning,0828.3,5.00,000.00,027.2,025.9,000.0,035.7,028.4,11.4,0000.0,0006.35,0001.49,0000.94
2023-11-05 10:59:00,SystemResetWarning,0828.3,4.99,000.00,027.2,025.9,000.0,035.6,028.4,11.4,0000.0,0006.57,0001.51,0000.97
